Back to catalog

KUIPER-00125

AliveCommunicationsLEO
NORAD 65954·PAYLOAD·🇺🇸 United States

Launched Oct 14, 2025 from Cape Canaveral Space Force Station

Loading…

Next Passes (next 24 hours)

TLE

FreshSource: CelesTrak SupGP

Epoch: Sep 14, 2026, 14:30 UTC

1 65954C 25228H   26257.60459491  .00000748  00000+0  97956-4 0  2573
2 65954  51.8992 225.2235 0000983  65.6808 330.2146 14.79931844    19

Track KUIPER-00125 in real time with AllMySat

Download on the App Store